| time (UTC) | temp C | wind direction | speed KPH | gust KPH | rain 1hr cm | rain 24hr cm | rain mn cm | humidity % | barometer mb |
| 20260507200028 | 10 | 39 | 8.0 | 12.9 | 0.00 | 0.00 | 0.00 | 73 | 1019.4 |
| 20260507194529 | 10 | 46 | 8.0 | 12.9 | 0.00 | 0.00 | 0.00 | 72 | 1019.4 |
| 20260507193026 | 10 | 41 | 6.4 | 12.9 | 0.00 | 0.00 | 0.00 | 71 | 1019.2 |
| 20260507191523 | 10 | 34 | 9.7 | 12.9 | 0.00 | 0.00 | 0.00 | 71 | 1019.1 |
| 20260507190022 | 11 | 41 | 8.0 | 12.9 | 0.00 | 0.00 | 0.00 | 71 | 1018.9 |
| 20260507184523 | 11 | 56 | 8.0 | 12.9 | 0.00 | 0.00 | 0.00 | 67 | 1018.7 |
| 20260507183018 | 11 | 35 | 9.7 | 14.5 | 0.00 | 0.00 | 0.00 | 69 | 1018.6 |
| 20260507181517 | 11 | 35 | 8.0 | 14.5 | 0.00 | 0.00 | 0.00 | 69 | 1018.6 |
| 20260507180021 | 11 | 37 | 11.3 | 14.5 | 0.00 | 0.00 | 0.00 | 67 | 1018.4 |
| 20260507174523 | 11 | 356 | 11.3 | 17.7 | 0.00 | 0.00 | 0.00 | 68 | 1018.3 |
| 20260507173031 | 11 | 23 | 12.9 | 19.3 | 0.00 | 0.00 | 0.00 | 69 | 1018.2 |
| 20260507171520 | 11 | 345 | 12.9 | 19.3 | 0.00 | 0.00 | 0.00 | 67 | 1018.1 |
| 20260507170013 | 11 | 28 | 11.3 | 22.5 | 0.00 | 0.00 | 0.00 | 68 | 1017.8 |
| 20260507164612 | 11 | 345 | 17.7 | 24.1 | 0.00 | 0.00 | 0.00 | 69 | 1017.8 |
| 20260507163009 | 11 | 338 | 16.1 | 20.9 | 0.00 | 0.00 | 0.00 | 66 | 1017.8 |
| 20260507161508 | 11 | 356 | 16.1 | 19.3 | 0.00 | 0.00 | 0.00 | 67 | 1017.8 |
| 20260507160011 | 11 | 340 | 12.9 | 17.7 | 0.00 | 0.00 | 0.00 | 68 | 1018.0 |
| 20260507154508 | 11 | 43 | 12.9 | 17.7 | 0.00 | 0.00 | 0.00 | 69 | 1018.0 |
| 20260507153007 | 11 | 23 | 11.3 | 17.7 | 0.00 | 0.00 | 0.00 | 70 | 1018.0 |
| 20260507151505 | 10 | 5 | 14.5 | 19.3 | 0.00 | 0.00 | 0.00 | 70 | 1017.9 |
| 20260507150005 | 11 | 347 | 14.5 | 17.7 | 0.00 | 0.00 | 0.00 | 71 | 1017.8 |
| 20260507144505 | 11 | 7 | 12.9 | 17.7 | 0.00 | 0.00 | 0.00 | 71 | 1017.9 |
| 20260507143003 | 11 | 39 | 11.3 | 17.7 | 0.00 | 0.00 | 0.00 | 71 | 1017.9 |
| 20260507141502 | 11 | 8 | 11.3 | 17.7 | 0.00 | 0.00 | 0.00 | 73 | 1017.9 |
| 20260507140001 | 11 | 24 | 11.3 | 17.7 | 0.00 | 0.00 | 0.00 | 73 | 1018.0 |
| 20260507134600 | 11 | 341 | 11.3 | 16.1 | 0.00 | 0.00 | 0.00 | 73 | 1018.0 |
| 20260507133144 | 10 | 23 | 12.9 | 17.7 | 0.00 | 0.00 | 0.00 | 73 | 1018.0 |
| 20260507131559 | 10 | 356 | 9.7 | 12.9 | 0.00 | 0.00 | 0.00 | 74 | 1017.9 |
| 20260507130104 | 10 | 2 | 11.3 | 14.5 | 0.00 | 0.00 | 0.00 | 73 | 1017.8 |
| 20260507124605 | 10 | 32 | 9.7 | 14.5 | 0.00 | 0.00 | 0.00 | 74 | 1017.7 |
| 20260507123055 | 10 | 34 | 9.7 | 14.5 | 0.00 | 0.00 | 0.00 | 74 | 1017.7 |
| 20260507121553 | 10 | 6 | 9.7 | 14.5 | 0.00 | 0.00 | 0.00 | 74 | 1017.6 |
| 20260507120053 | 10 | 30 | 9.7 | 12.9 | 0.00 | 0.00 | 0.00 | 74 | 1017.6 |
| 20260507114600 | 10 | 13 | 9.7 | 12.9 | 0.00 | 0.00 | 0.00 | 75 | 1017.6 |
| 20260507113050 | 10 | 34 | 9.7 | 14.5 | 0.00 | 0.00 | 0.00 | 76 | 1017.6 |
| 20260507111549 | 10 | 45 | 9.7 | 14.5 | 0.00 | 0.00 | 0.00 | 76 | 1017.5 |
| 20260507110049 | 10 | 28 | 9.7 | 14.5 | 0.00 | 0.00 | 0.00 | 77 | 1017.5 |
| 20260507104547 | 10 | 37 | 8.0 | 14.5 | 0.00 | 0.00 | 0.00 | 77 | 1017.4 |
| 20260507103051 | 10 | 25 | 8.0 | 12.9 | 0.00 | 0.00 | 0.00 | 77 | 1017.4 |
| 20260507101548 | 10 | 341 | 8.0 | 12.9 | 0.00 | 0.00 | 0.00 | 77 | 1017.3 |
| 20260507100044 | 10 | 26 | 8.0 | 16.1 | 0.00 | 0.00 | 0.00 | 77 | 1017.2 |
| 20260507094554 | 10 | 20 | 9.7 | 16.1 | 0.00 | 0.00 | 0.00 | 77 | 1017.2 |
| 20260507093042 | 10 | 40 | 9.7 | 14.5 | 0.00 | 0.00 | 0.00 | 78 | 1017.1 |
| 20260507091540 | 10 | 349 | 12.9 | 17.7 | 0.00 | 0.00 | 0.00 | 77 | 1017.0 |
| 20260507090042 | 10 | 339 | 14.5 | 19.3 | 0.00 | 0.00 | 0.00 | 77 | 1016.8 |
| 20260507084540 | 10 | 357 | 14.5 | 20.9 | 0.00 | 0.00 | 0.00 | 77 | 1016.7 |
| 20260507083038 | 10 | 352 | 14.5 | 17.7 | 0.00 | 0.00 | 0.00 | 77 | 1016.6 |
| 20260507081539 | 10 | 23 | 12.9 | 17.7 | 0.00 | 0.00 | 0.00 | 78 | 1016.4 |
| 20260507080034 | 10 | 6 | 9.7 | 12.9 | 0.00 | 0.00 | 0.00 | 78 | 1016.3 |
| 20260507074533 | 10 | 353 | 3.2 | 6.4 | 0.00 | 0.00 | 0.00 | 77 | 1016.3 |
| 20260507073032 | 10 | 338 | 4.8 | 9.7 | 0.00 | 0.00 | 0.00 | 78 | 1016.2 |
| 20260507071529 | 10 | 33 | 4.8 | 8.0 | 0.00 | 0.00 | 0.00 | 77 | 1016.0 |
| 20260507070039 | 10 | 324 | 1.6 | 8.0 | 0.00 | 0.00 | 0.00 | 76 | 1015.9 |
| 20260507064622 | 10 | 312 | 3.2 | 9.7 | 0.00 | 0.00 | 0.00 | 75 | 1015.8 |
| 20260507063020 | 9 | 273 | 6.4 | 14.5 | 0.00 | 0.00 | 0.00 | 76 | 1015.7 |
| 20260507061515 | 8 | 276 | 1.6 | 9.7 | 0.00 | 0.00 | 0.00 | 79 | 1015.6 |
| 20260507060019 | 8 | 269 | 1.6 | 6.4 | 0.00 | 0.00 | 0.00 | 82 | 1015.7 |
| 20260507054507 | 7 | 253 | 1.6 | 8.0 | 0.00 | 0.00 | 0.00 | 84 | 1015.6 |
| 20260507053005 | 7 | 250 | 1.6 | 6.4 | 0.00 | 0.00 | 0.00 | 86 | 1015.5 |
| 20260507051501 | 6 | 245 | 1.6 | 4.8 | 0.00 | 0.00 | 0.00 | 88 | 1015.3 |
| 20260507050058 | 5 | 263 | 1.6 | 6.4 | 0.00 | 0.00 | 0.00 | 89 | 1015.3 |
| 20260507044615 | 5 | 240 | 3.2 | 4.8 | 0.00 | 0.00 | 0.00 | 89 | 1015.2 |
| 20260507043055 | 4 | 226 | 3.2 | 6.4 | 0.00 | 0.00 | 0.00 | 89 | 1015.0 |
| 20260507041554 | 3 | 226 | 3.2 | 6.4 | 0.00 | 0.00 | 0.00 | 89 | 1015.1 |
| 20260507040051 | 3 | 226 | 3.2 | 6.4 | 0.00 | 0.00 | 0.00 | 88 | 1014.9 |
| 20260507034554 | 4 | 236 | 3.2 | 6.4 | 0.00 | 0.00 | 0.00 | 89 | 1014.9 |
| 20260507033101 | 3 | 239 | 3.2 | 8.0 | 0.00 | 0.00 | 0.00 | 89 | 1014.8 |
| 20260507031558 | 3 | 237 | 3.2 | 6.4 | 0.00 | 0.00 | 0.00 | 89 | 1014.7 |
| 20260507030104 | 3 | 227 | 4.8 | 6.4 | 0.00 | 0.00 | 0.00 | 87 | 1014.6 |
| 20260507024602 | 4 | 239 | 4.8 | 6.4 | 0.00 | 0.00 | 0.00 | 87 | 1014.5 |
| 20260507023040 | 3 | 241 | 3.2 | 6.4 | 0.00 | 0.00 | 0.00 | 87 | 1014.5 |
| 20260507021545 | 4 | 233 | 0.0 | 4.8 | 0.00 | 0.00 | 0.00 | 87 | 1014.4 |
| 20260507020049 | 4 | 229 | 0.0 | 3.2 | 0.00 | 0.00 | 0.00 | 86 | 1014.4 |
| 20260507014543 | 4 | 247 | 0.0 | 1.6 | 0.00 | 0.00 | 0.00 | 87 | 1014.2 |
| 20260507013038 | 4 | 257 | 0.0 | 1.6 | 0.00 | 0.00 | 0.00 | 86 | 1014.1 |
| 20260507011535 | 5 | 281 | 0.0 | 1.6 | 0.00 | 0.00 | 0.00 | 86 | 1014.2 |
| 20260507010035 | 5 | 282 | 0.0 | 1.6 | 0.00 | 0.00 | 0.00 | 85 | 1014.2 |
| 20260507004526 | 5 | 301 | 0.0 | 1.6 | 0.00 | 0.00 | 0.00 | 84 | 1014.1 |
| 20260507003023 | 5 | 278 | 0.0 | 4.8 | 0.00 | 0.00 | 0.00 | 84 | 1014.1 |
| 20260507001525 | 6 | 214 | 1.6 | 8.0 | 0.00 | 0.00 | 0.00 | 84 | 1014.1 |
| 20260507000018 | 6 | 224 | 3.2 | 8.0 | 0.00 | 0.00 | 0.00 | 84 | 1014.0 |
| 20260506234517 | 6 | 214 | 4.8 | 9.7 | 0.00 | 0.00 | 0.00 | 83 | 1013.8 |
| 20260506233015 | 6 | 229 | 4.8 | 9.7 | 0.00 | 0.00 | 0.00 | 82 | 1013.9 |
| 20260506231512 | 6 | 234 | 4.8 | 9.7 | 0.00 | 0.00 | 0.00 | 81 | 1013.9 |
| 20260506230009 | 6 | 245 | 4.8 | 8.0 | 0.00 | 0.00 | 0.00 | 80 | 1013.8 |
| 20260506224507 | 6 | 239 | 3.2 | 8.0 | 0.00 | 0.00 | 0.00 | 79 | 1013.9 |
| 20260506223004 | 6 | 223 | 3.2 | 6.4 | 0.00 | 0.00 | 0.00 | 79 | 1013.8 |
| 20260506221501 | 6 | 255 | 3.2 | 9.7 | 0.00 | 0.00 | 0.00 | 78 | 1013.7 |
| 20260506214558 | 6 | 236 | 3.2 | 6.4 | 0.00 | 0.00 | 0.00 | 76 | 1013.6 |
| 20260506213055 | 7 | 259 | 1.6 | 6.4 | 0.00 | 0.00 | 0.00 | 75 | 1013.6 |
| 20260506211552 | 7 | 218 | 0.0 | 4.8 | 0.00 | 0.00 | 0.00 | 74 | 1013.5 |
| 20260506210052 | 7 | 253 | 1.6 | 4.8 | 0.00 | 0.00 | 0.00 | 73 | 1013.4 |
| 20260506204550 | 8 | 265 | 1.6 | 4.8 | 0.00 | 0.00 | 0.00 | 71 | 1013.3 |
| 20260506203048 | 8 | 244 | 3.2 | 9.7 | 0.00 | 0.00 | 0.00 | 69 | 1013.2 |
| 20260506201547 | 8 | 235 | 3.2 | 6.4 | 0.00 | 0.00 | 0.00 | 65 | 1013.0 |